sat.trackr.live / text

‹ back to catalog

GLOBALSTAR M075

NORAD 37192 · 2010-054E

PAYLOAD ACTIVE UNKNOWN

§ Identity

Operator
Country
GLOB
Launch date
2010-10-19
Launch site
TYMSC
Launch vehicle
Mass (kg)
RCS (m²)
4.74

Purposes: comms

External: N2YO · Heavens-Above · Gunter

§ Orbital elements

Epoch: 2026-09-19T21:36:45.124992Z

Period
114.08 min
Inclination
51.9934°
Eccentricity
0.0000536
Mean motion
12.62260558 rev/d
Perigee alt
1,413.2 km
Apogee alt
1,414.0 km
Semi-major
7,791.8 km
B*
6.9179e-5
RAAN
221.8121°
Arg perigee
67.2731°
Mean anomaly
327.1858°
Rev number
73,390

§ Raw data

GLOBALSTAR M0751 37192U 10054E   26262.90052228 -.00000091  00000+0  69179-4 0  99942 37192  51.9934 221.8121 0000536  67.2731 327.1858 12.62260558733905

JSON: /api/v1/satellites/37192 · /tle

For live sub-satellite position, see the globe view (requires WebGL).

§ Visibility from observer

Set your observer location to see the next 7 days of passes ≥ 10°. The values pass through the URL so the page stays shareable.

No JS? Fill the form by hand. The geolocation button needs JavaScript.